{"data":{"norad_id":53164,"intl_designator":"2022-083AJ","name":"STARLINK-4116","alt_names":[],"object_type":"PAYLOAD","status":"ACTIVE","operator":null,"country":"US","launch_date":"2022-07-17","launch_site_code":"AFETR","launch_vehicle":null,"mission":null,"orbit_class":"UNKNOWN","rcs_meters":null,"size_class":null,"mass_kg":null,"dimensions":null,"purposes":["comms"],"wikipedia_slug":null,"has_3d_model":false,"image_url":null,"decayed_at":null,"tle_current":{"epoch":"2026-05-24T19:28:06.982752Z","epoch_age_seconds":87430,"freshness":"FRESH","line1":"1 53164U 22083AJ  26144.81119193  .00000636  00000+0  58079-4 0  9991","line2":"2 53164  53.2133 182.3998 0001252  79.8942 280.2191 15.08830980212850","mean_motion":15.0883098,"eccentricity":0.0001252,"inclination_deg":53.2133,"raan_deg":182.3998,"arg_perigee_deg":79.8942,"mean_anomaly_deg":280.2191,"bstar":5.8079e-5,"rev_number":21285,"period_min":95.43812521665,"perigee_km":538.9048375564,"apogee_km":540.63708170949,"semimajor_km":6917.9079596329,"source":"CELESTRAK","updated_at":"2026-05-25T13:38:17.322399Z"}}}